Terug naar catalogus

LDPE-3A

ActiefWetenschapGEO
NORAD 55264·PAYLOAD·🇺🇸 United States

Gelanceerd Jan 15, 2023 vanaf Cape Canaveral Space Force Station

Loading…

TLE

VersSource: Space-Track

Epoch: Sep 14, 2026, 12:29 UTC

1 55264U 23008B   26257.52058617  .00000047  00000-0  00000-0 0  9992
2 55264   2.5748  80.4797 0002211 103.9932 245.9137  0.99144168 12699

Volg LDPE-3A in realtime met AllMySat

Download on the App Store